TimeCDT,TemperatureF,Dew PointF,Humidity,Sea Level PressureIn,VisibilityMPH,Wind Direction,Wind SpeedMPH,Gust SpeedMPH,PrecipitationIn,Events,Conditions,WindDirDegrees,DateUTC
12:15 AM,57.2,55.4,94,29.38,10.0,SSW,9.2,-,N/A,,Overcast,200,2012-10-18 05:15:00
12:35 AM,55.4,53.6,94,29.39,5.0,West,12.7,21.9,N/A,,Drizzle,260,2012-10-18 05:35:00
12:55 AM,53.6,51.8,94,29.40,5.0,West,12.7,18.4,N/A,Rain,Rain,260,2012-10-18 05:55:00
1:15 AM,51.8,51.8,100,29.39,7.0,West,12.7,18.4,N/A,,Drizzle,270,2012-10-18 06:15:00
1:35 AM,51.8,50.0,94,29.40,7.0,WSW,6.9,-,N/A,Rain,Rain,250,2012-10-18 06:35:00
1:55 AM,51.8,51.8,100,29.39,7.0,WSW,6.9,-,N/A,,Light Drizzle,240,2012-10-18 06:55:00
2:15 AM,51.8,51.8,100,29.39,10.0,WSW,8.1,-,N/A,Rain,Light Rain,240,2012-10-18 07:15:00
2:35 AM,51.8,50.0,94,29.40,10.0,WSW,12.7,21.9,N/A,,Light Drizzle,240,2012-10-18 07:35:00
2:55 AM,51.8,50.0,94,29.40,7.0,WSW,15.0,21.9,N/A,Rain,Rain,240,2012-10-18 07:55:00
3:15 AM,51.8,50.0,94,29.40,7.0,WSW,12.7,21.9,N/A,Rain,Rain,240,2012-10-18 08:15:00
3:35 AM,50.0,50.0,100,29.40,10.0,WSW,12.7,17.3,N/A,Rain,Light Rain,240,2012-10-18 08:35:00
3:55 AM,50.0,46.4,87,29.40,10.0,WSW,11.5,20.7,N/A,,Scattered Clouds,240,2012-10-18 08:55:00
4:15 AM,48.2,44.6,87,29.41,10.0,WSW,11.5,16.1,N/A,,Clear,240,2012-10-18 09:15:00
4:35 AM,46.4,44.6,93,29.41,10.0,WSW,10.4,-,N/A,,Clear,250,2012-10-18 09:35:00
4:55 AM,46.4,42.8,87,29.41,10.0,WSW,10.4,-,N/A,,Clear,240,2012-10-18 09:55:00
5:15 AM,46.4,42.8,87,29.42,10.0,SW,13.8,18.4,N/A,,Scattered Clouds,230,2012-10-18 10:15:00
5:35 AM,46.4,42.8,87,29.43,10.0,SW,10.4,18.4,N/A,,Scattered Clouds,230,2012-10-18 10:35:00
5:55 AM,44.6,42.8,93,29.44,10.0,SW,11.5,17.3,N/A,,Scattered Clouds,230,2012-10-18 10:55:00
6:15 AM,44.6,42.8,93,29.45,10.0,SW,11.5,-,N/A,,Clear,230,2012-10-18 11:15:00
6:35 AM,44.6,41.0,87,29.45,10.0,SW,11.5,-,N/A,,Clear,230,2012-10-18 11:35:00
6:55 AM,44.6,41.0,87,29.46,10.0,SW,12.7,20.7,N/A,,Clear,230,2012-10-18 11:55:00
7:15 AM,44.6,41.0,87,29.46,10.0,SW,9.2,19.6,N/A,,Clear,230,2012-10-18 12:15:00
7:55 AM,44.6,41.0,87,29.48,10.0,SW,9.2,-,N/A,,Clear,230,2012-10-18 12:55:00
8:15 AM,46.4,41.0,81,29.48,10.0,SW,8.1,-,N/A,,Clear,220,2012-10-18 13:15:00
8:35 AM,46.4,41.0,81,29.48,10.0,SSW,10.4,-,N/A,,Clear,210,2012-10-18 13:35:00
9:15 AM,50.0,42.8,76,29.49,10.0,SSW,13.8,18.4,N/A,,Clear,200,2012-10-18 14:15:00
9:35 AM,50.0,42.8,76,29.49,10.0,SSW,15.0,19.6,N/A,,Clear,210,2012-10-18 14:35:00
9:55 AM,51.8,42.8,71,29.49,10.0,SSW,13.8,23.0,N/A,,Clear,210,2012-10-18 14:55:00
10:15 AM,51.8,42.8,71,29.49,10.0,SSW,15.0,23.0,N/A,,Clear,210,2012-10-18 15:15:00
10:35 AM,53.6,42.8,67,29.50,10.0,SW,17.3,25.3,N/A,,Clear,220,2012-10-18 15:35:00
11:15 AM,53.6,41.0,62,29.50,10.0,SSW,16.1,25.3,N/A,,Clear,210,2012-10-18 16:15:00
11:35 AM,55.4,41.0,58,29.51,10.0,SSW,15.0,24.2,N/A,,Clear,210,2012-10-18 16:35:00
11:55 AM,55.4,39.2,54,29.50,10.0,SSW,15.0,23.0,N/A,,Clear,200,2012-10-18 16:55:00
12:15 PM,55.4,39.2,54,29.50,10.0,SSW,18.4,23.0,N/A,,Clear,200,2012-10-18 17:15:00
12:35 PM,55.4,37.4,51,29.50,10.0,SSW,19.6,24.2,N/A,,Clear,200,2012-10-18 17:35:00
12:55 PM,59.0,33.8,39,29.49,10.0,SSW,12.7,25.3,N/A,,Clear,210,2012-10-18 17:55:00
1:15 PM,59.0,35.6,42,29.49,10.0,South,23.0,29.9,N/A,,Scattered Clouds,190,2012-10-18 18:15:00
1:35 PM,59.0,32.0,36,29.49,10.0,SSW,23.0,27.6,N/A,,Scattered Clouds,210,2012-10-18 18:35:00
1:55 PM,55.4,32.0,41,29.49,10.0,SSW,21.9,28.8,N/A,,Scattered Clouds,210,2012-10-18 18:55:00
2:15 PM,57.2,30.2,36,29.50,10.0,SSW,25.3,36.8,N/A,,Scattered Clouds,210,2012-10-18 19:15:00
2:35 PM,55.4,32.0,41,29.50,10.0,SSW,18.4,26.5,N/A,,Scattered Clouds,210,2012-10-18 19:35:00
2:55 PM,55.4,32.0,41,29.50,10.0,SSW,19.6,28.8,N/A,,Mostly Cloudy,210,2012-10-18 19:55:00
3:15 PM,55.4,32.0,41,29.51,10.0,SW,20.7,24.2,N/A,,Overcast,220,2012-10-18 20:15:00
3:35 PM,53.6,32.0,44,29.53,10.0,SW,21.9,33.4,N/A,,Overcast,220,2012-10-18 20:35:00
3:55 PM,50.0,35.6,58,29.55,7.0,SW,20.7,38.0,N/A,,Drizzle,230,2012-10-18 20:55:00
4:15 PM,48.2,39.2,71,29.56,10.0,SW,13.8,28.8,N/A,Rain,Rain,220,2012-10-18 21:15:00
4:35 PM,46.4,41.0,81,29.57,10.0,SW,15.0,20.7,N/A,Rain,Rain,220,2012-10-18 21:35:00
4:55 PM,46.4,42.8,87,29.58,10.0,SW,10.4,-,N/A,,Drizzle,230,2012-10-18 21:55:00
5:15 PM,46.4,42.8,87,29.59,10.0,SW,9.2,-,N/A,Rain,Rain,230,2012-10-18 22:15:00
5:35 PM,44.6,42.8,93,29.59,10.0,SW,9.2,-,N/A,,Drizzle,220,2012-10-18 22:35:00
5:55 PM,44.6,42.8,93,29.60,10.0,SW,8.1,-,N/A,Rain,Rain,220,2012-10-18 22:55:00
6:15 PM,44.6,42.8,93,29.60,10.0,SSW,6.9,-,N/A,Rain,Light Rain,210,2012-10-18 23:15:00
6:55 PM,44.6,42.8,93,29.60,10.0,SSW,10.4,16.1,N/A,Rain,Light Rain,210,2012-10-18 23:55:00
7:15 PM,44.6,42.8,93,29.61,10.0,SSW,9.2,-,N/A,Rain,Rain,200,2012-10-19 00:15:00
7:35 PM,44.6,42.8,93,29.61,10.0,SSW,8.1,-,N/A,Rain,Light Rain,200,2012-10-19 00:35:00
7:55 PM,44.6,42.8,93,29.61,10.0,SSW,9.2,-,N/A,Rain,Rain,200,2012-10-19 00:55:00
8:15 PM,44.6,42.8,93,29.60,10.0,South,8.1,-,N/A,,Light Drizzle,190,2012-10-19 01:15:00
8:35 PM,44.6,42.8,93,29.60,10.0,South,8.1,-,N/A,Rain,Light Rain,190,2012-10-19 01:35:00
8:55 PM,44.6,42.8,93,29.60,10.0,SSW,9.2,-,N/A,Rain,Light Rain,200,2012-10-19 01:55:00
9:15 PM,44.6,42.8,93,29.59,10.0,South,9.2,-,N/A,Rain,Light Rain,180,2012-10-19 02:15:00
9:35 PM,44.6,42.8,93,29.58,10.0,South,9.2,-,N/A,Rain,Light Rain,170,2012-10-19 02:35:00
9:55 PM,44.6,42.8,93,29.58,10.0,South,6.9,-,N/A,Rain,Rain,180,2012-10-19 02:55:00
10:15 PM,44.6,42.8,93,29.58,10.0,South,8.1,-,N/A,,Drizzle,190,2012-10-19 03:15:00
10:55 PM,44.6,42.8,93,29.56,10.0,SSE,4.6,-,N/A,,Light Drizzle,160,2012-10-19 03:55:00